Lid_Strength_Index
8 7 6 6 6 6 6 6 5 5 5 5 2 2 1 1 1 2 2 3 3 3
8 8 8 8 7 7 6 5 5 5 5 4 0 1 1 1 1 2 2 3 3 3
9 8 8 8 8 8 7 6 6 6 6 2 0 0 1 1 2 2 3 3 3 3
9 9 9 9 8 7 7 7 7 7 5 2 1 0 1 2 2 2 3 3 3 3
10 10 10 10 9 8 8 8 7 7 5 2 1 1 1 3 3 3 4 4 3 4
11 11 10 10 10 9 9 8 8 7 7 6 3 3 3 3 4 4 4 4 3 4
10 11 10 10 10 10 9 9 9 9 8 8 7 6 6 6 8 8 8 8 7 6
10 9 10 10 10 11 10 10 10 10 9 9 9 8 8 8 9 9 10 11 11 10
10 10 10 11 11 11 10 10 10 11 10 10 10 11 10 10 10 10 11 12 12 11
12 11 10 11 11 11 11 11 11 11 10 11 11 11 11 12 11 11 12 11 11 12
11 12 12 12 11 11 11 11 11 11 10 11 11 11 12 13 12 12 12 12 11 9
11 12 11 12 12 12 11 11 12 11 10 10 11 11 11 10 11 12 12 12 12 11
11 11 12 12 13 13 12 13 12 13 12 13 11 11 10 10 10 11 12 12 12 13
13 12 11 12 12 12 13 13 13 13 12 12 12 11 11 11 11 11 12 12 12 12